QPF
0.00 0.00 0.00 0.00 0.00 0.00 0.00 0.00 0.00 0.00 0.00 0.00 0.00 0.00 0.00 0.00 0.00 0.00 0.00 0.00 0.00 0.00 0.00 0.00 0.00 0.00 0.00 0.00 0.00 0.00 0.00 0.00 0.00 0.00 0.00 0.00 0.00 0.00 0.00 0.00 0.00 0.00 0.00 0.00 0.00 0.00 0.05
0.00 0.00 0.00 0.00 0.00 0.00 0.00 0.00 0.00 0.00 0.00 0.00 0.00 0.00 0.00 0.00 0.00 0.00 0.00 0.00 0.00 0.00 0.00 0.00 0.00 0.00 0.00 0.00 0.00 0.00 0.00 0.00 0.00 0.00 0.00 0.00 0.00 0.00 0.00 0.00 0.00 0.00 0.00 0.00 0.00 0.00 0.01
0.00 0.00 0.00 0.00 0.00 0.00 0.00 0.00 0.00 0.00 0.00 0.00 0.00 0.00 0.00 0.00 0.00 0.00 0.00 0.00 0.00 0.00 0.00 0.00 0.00 0.00 0.00 0.00 0.00 0.00 0.00 0.00 0.00 0.00 0.00 0.00 0.00 0.00 0.00 0.00 0.00 0.00 0.00 0.00 0.00 0.00 0.00
0.00 0.00 0.00 0.00 0.00 0.00 0.00 0.00 0.00 0.00 0.00 0.00 0.00 0.00 0.00 0.00 0.00 0.00 0.00 0.00 0.00 0.00 0.00 0.00 0.00 0.00 0.00 0.00 0.00 0.00 0.00 0.00 0.00 0.00 0.00 0.00 0.00 0.00 0.00 0.00 0.00 0.00 0.00 0.00 0.00 0.00 0.00
0.00 0.00 0.00 0.00 0.00 0.00 0.00 0.00 0.00 0.00 0.00 0.00 0.00 0.00 0.00 0.00 0.00 0.00 0.00 0.00 0.00 0.00 0.00 0.00 0.00 0.00 0.00 0.00 0.00 0.00 0.00 0.00 0.00 0.00 0.00 0.00 0.00 0.00 0.00 0.00 0.00 0.00 0.00 0.00 0.00 0.00 0.00
0.00 0.00 0.00 0.00 0.00 0.00 0.00 0.00 0.00 0.00 0.00 0.00 0.00 0.00 0.00 0.00 0.00 0.00 0.00 0.00 0.00 0.00 0.00 0.00 0.00 0.00 0.00 0.00 0.00 0.00 0.00 0.00 0.00 0.00 0.00 0.00 0.00 0.00 0.00 0.00 0.00 0.00 0.00 0.00 0.00 0.00 0.00
0.00 0.00 0.00 0.00 0.00 0.00 0.00 0.00 0.00 0.00 0.00 0.00 0.00 0.00 0.00 0.00 0.00 0.00 0.00 0.00 0.00 0.00 0.00 0.00 0.00 0.00 0.00 0.00 0.00 0.00 0.00 0.00 0.00 0.00 0.00 0.00 0.00 0.00 0.00 0.00 0.00 0.00 0.00 0.00 0.00 0.00 0.00
0.00 0.00 0.00 0.00 0.00 0.00 0.00 0.00 0.00 0.00 0.00 0.00 0.00 0.00 0.00 0.00 0.00 0.00 0.00 0.00 0.00 0.00 0.00 0.00 0.00 0.00 0.00 0.00 0.00 0.00 0.00 0.00 0.00 0.00 0.00 0.00 0.00 0.00 0.00 0.00 0.00 0.00 0.00 0.00 0.00 0.00 0.00
0.00 0.00 0.00 0.00 0.00 0.00 0.00 0.00 0.00 0.00 0.00 0.00 0.00 0.00 0.00 0.00 0.00 0.00 0.00 0.00 0.00 0.00 0.00 0.00 0.00 0.00 0.00 0.00 0.00 0.00 0.00 0.00 0.00 0.00 0.00 0.00 0.00 0.00 0.00 0.00 0.00 0.00 0.00 0.00 0.00 0.00 0.00
0.00 0.00 0.00 0.00 0.00 0.00 0.00 0.00 0.00 0.00 0.00 0.00 0.00 0.00 0.00 0.00 0.00 0.00 0.00 0.00 0.00 0.00 0.00 0.00 0.00 0.00 0.00 0.00 0.00 0.00 0.00 0.00 0.00 0.00 0.00 0.00 0.00 0.00 0.00 0.00 0.00 0.00 0.00 0.00 0.00 0.00 0.00
0.00 0.00 0.00 0.00 0.00 0.00 0.00 0.00 0.00 0.00 0.00 0.00 0.00 0.00 0.00 0.00 0.00 0.00 0.00 0.00 0.00 0.00 0.00 0.00 0.00 0.00 0.00 0.00 0.00 0.00 0.00 0.00 0.00 0.00 0.00 0.00 0.00 0.00 0.00 0.00 0.00 0.00 0.00 0.00 0.00 0.00 0.00
0.00 0.00 0.00 0.00 0.00 0.00 0.00 0.00 0.00 0.00 0.00 0.00 0.00 0.00 0.00 0.00 0.00 0.00 0.00 0.00 0.00 0.00 0.00 0.00 0.00 0.00 0.00 0.00 0.00 0.00 0.00 0.00 0.00 0.00 0.00 0.00 0.00 0.00 0.00 0.00 0.00 0.00 0.00 0.00 0.00 0.00 0.00
0.00 0.00 0.00 0.00 0.00 0.00 0.00 0.00 0.00 0.00 0.00 0.00 0.00 0.00 0.00 0.00 0.00 0.00 0.00 0.00 0.00 0.00 0.00 0.00 0.00 0.00 0.00 0.00 0.00 0.00 0.00 0.00 0.00 0.00 0.00 0.00 0.00 0.00 0.00 0.00 0.00 0.00 0.00 0.00 0.00 0.00 0.00
0.00 0.00 0.00 0.00 0.00 0.00 0.00 0.00 0.00 0.00 0.00 0.00 0.00 0.00 0.00 0.00 0.00 0.00 0.00 0.00 0.00 0.00 0.00 0.00 0.00 0.00 0.00 0.00 0.00 0.00 0.00 0.00 0.00 0.00 0.00 0.00 0.00 0.00 0.00 0.00 0.00 0.00 0.00 0.00 0.00 0.00 0.00
0.00 0.00 0.00 0.00 0.00 0.00 0.00 0.00 0.00 0.00 0.00 0.00 0.00 0.00 0.00 0.00 0.00 0.00 0.00 0.00 0.00 0.00 0.00 0.00 0.00 0.00 0.00 0.00 0.00 0.00 0.00 0.00 0.00 0.00 0.00 0.00 0.00 0.00 0.00 0.00 0.00 0.00 0.00 0.00 0.00 0.00 0.00
0.00 0.00 0.00 0.00 0.00 0.00 0.00 0.00 0.00 0.00 0.00 0.00 0.00 0.00 0.00 0.00 0.00 0.00 0.00 0.00 0.00 0.00 0.00 0.00 0.00 0.00 0.00 0.00 0.00 0.00 0.00 0.00 0.00 0.00 0.00 0.00 0.00 0.00 0.00 0.00 0.00 0.00 0.00 0.00 0.00 0.00 0.00
0.00 0.00 0.00 0.00 0.00 0.00 0.00 0.00 0.00 0.00 0.00 0.00 0.00 0.00 0.00 0.00 0.00 0.00 0.00 0.00 0.00 0.00 0.00 0.00 0.00 0.00 0.00 0.00 0.00 0.00 0.00 0.00 0.00 0.00 0.00 0.00 0.00 0.00 0.00 0.00 0.00 0.00 0.00 0.00 0.00 0.00 0.00
0.00 0.00 0.00 0.00 0.00 0.00 0.00 0.00 0.00 0.00 0.00 0.00 0.00 0.00 0.00 0.00 0.00 0.00 0.00 0.00 0.00 0.00 0.00 0.00 0.00 0.00 0.00 0.00 0.00 0.00 0.00 0.00 0.00 0.00 0.00 0.00 0.00 0.00 0.00 0.00 0.00 0.00 0.00 0.00 0.00 0.00 0.00
0.00 0.00 0.00 0.00 0.00 0.00 0.00 0.00 0.00 0.00 0.00 0.00 0.00 0.00 0.00 0.00 0.00 0.00 0.00 0.00 0.00 0.00 0.00 0.00 0.00 0.00 0.00 0.00 0.00 0.00 0.00 0.00 0.00 0.00 0.00 0.00 0.00 0.00 0.00 0.00 0.00 0.00 0.00 0.00 0.00 0.00 0.00
0.00 0.00 0.00 0.00 0.00 0.00 0.00 0.00 0.00 0.00 0.00 0.00 0.00 0.00 0.00 0.00 0.00 0.00 0.00 0.00 0.00 0.00 0.00 0.00 0.00 0.00 0.00 0.00 0.00 0.00 0.00 0.00 0.00 0.00 0.00 0.00 0.00 0.00 0.00 0.00 0.00 0.00 0.00 0.00 0.00 0.00 0.00
0.00 0.00 0.00 0.00 0.00 0.00 0.00 0.00 0.00 0.00 0.00 0.00 0.00 0.00 0.00 0.00 0.00 0.00 0.00 0.00 0.00 0.00 0.00 0.00 0.00 0.00 0.00 0.00 0.00 0.00 0.00 0.00 0.00 0.00 0.00 0.00 0.00 0.00 0.00 0.00 0.00 0.00 0.00 0.00 0.00 0.00 0.00
0.00 0.00 0.00 0.00 0.00 0.00 0.00 0.00 0.00 0.00 0.00 0.00 0.00 0.00 0.00 0.00 0.00 0.00 0.00 0.00 0.00 0.00 0.00 0.00 0.00 0.00 0.00 0.00 0.00 0.00 0.00 0.00 0.00 0.00 0.00 0.00 0.00 0.00 0.00 0.00 0.00 0.00 0.00 0.00 0.00 0.00 0.00
0.00 0.00 0.00 0.00 0.00 0.00 0.00 0.00 0.00 0.00 0.00 0.00 0.00 0.00 0.00 0.00 0.00 0.00 0.00 0.00 0.00 0.00 0.00 0.00 0.00 0.00 0.00 0.00 0.00 0.00 0.00 0.00 0.00 0.00 0.00 0.00 0.00 0.00 0.00 0.00 0.00 0.00 0.00 0.00 0.00 0.00 0.00
0.00 0.00 0.00 0.00 0.00 0.00 0.00 0.00 0.00 0.00 0.00 0.00 0.00 0.00 0.00 0.00 0.00 0.00 0.00 0.00 0.00 0.00 0.00 0.00 0.00 0.00 0.00 0.00 0.00 0.00 0.00 0.00 0.00 0.00 0.00 0.00 0.00 0.00 0.00 0.00 0.00 0.00 0.00 0.00 0.00 0.00 0.00
0.00 0.00 0.00 0.00 0.00 0.00 0.00 0.00 0.00 0.00 0.00 0.00 0.00 0.00 0.00 0.00 0.00 0.00 0.00 0.00 0.00 0.00 0.00 0.00 0.00 0.00 0.00 0.00 0.00 0.00 0.00 0.00 0.00 0.00 0.00 0.00 0.00 0.00 0.00 0.00 0.00 0.00 0.00 0.00 0.00 0.00 0.00
0.00 0.00 0.00 0.00 0.00 0.00 0.00 0.00 0.00 0.00 0.00 0.00 0.00 0.00 0.00 0.00 0.00 0.00 0.00 0.00 0.00 0.00 0.00 0.00 0.00 0.00 0.00 0.00 0.00 0.00 0.00 0.00 0.00 0.00 0.00 0.00 0.00 0.00 0.00 0.00 0.00 0.00 0.00 0.00 0.00 0.00 0.00
0.00 0.00 0.00 0.00 0.00 0.00 0.00 0.00 0.00 0.00 0.00 0.00 0.00 0.00 0.00 0.00 0.00 0.00 0.00 0.00 0.00 0.00 0.00 0.00 0.00 0.00 0.00 0.00 0.00 0.00 0.00 0.00 0.00 0.00 0.00 0.00 0.00 0.00 0.00 0.00 0.00 0.00 0.00 0.00 0.00 0.00 0.00
0.01 0.01 0.00 0.00 0.00 0.00 0.00 0.00 0.00 0.00 0.00 0.00 0.00 0.00 0.00 0.00 0.00 0.00 0.00 0.00 0.00 0.00 0.00 0.00 0.00 0.00 0.00 0.00 0.00 0.00 0.00 0.00 0.00 0.00 0.00 0.00 0.00 0.00 0.00 0.00 0.00 0.00 0.00 0.00 0.00 0.00 0.00
0.02 0.03 0.02 0.01 0.01 0.00 0.00 0.00 0.00 0.00 0.00 0.01 0.01 0.00 0.00 0.00 0.00 0.00 0.00 0.00 0.00 0.00 0.00 0.00 0.00 0.00 0.00 0.00 0.00 0.00 0.00 0.00 0.00 0.00 0.00 0.00 0.00 0.00 0.00 0.00 0.00 0.00 0.00 0.00 0.00 0.00 0.00
MSLP
1022.59 1022.44 1022.44 1022.24 1021.98 1021.72 1021.51 1021.20 1020.94 1020.73 1020.56 1020.42 1020.39 1020.30 1020.22 1020.09 1019.75 1019.41 1019.20 1019.00 1018.76 1018.42 1018.04 1017.65 1017.19 1016.90 1016.60 1016.59 1016.08 1015.27 1015.07 1014.73 1014.58 1014.70 1014.81 1014.83 1014.97 1015.18 1015.08 1014.79 1014.35 1013.94 1013.21 1012.57 1011.87 1011.64 1011.72
1022.68 1022.54 1022.43 1022.30 1022.13 1021.79 1021.50 1021.30 1021.12 1020.72 1020.49 1020.39 1020.32 1020.23 1020.18 1020.03 1019.79 1019.55 1019.23 1018.92 1018.70 1018.41 1018.08 1017.76 1017.34 1016.95 1016.90 1016.56 1015.67 1015.37 1015.23 1014.89 1014.90 1014.97 1014.95 1014.94 1015.08 1015.17 1015.18 1014.87 1014.57 1014.05 1013.38 1012.93 1012.38 1012.01 1011.83
1022.91 1022.68 1022.43 1022.30 1022.14 1021.87 1021.54 1021.38 1021.10 1020.81 1020.43 1020.33 1020.29 1020.18 1020.08 1019.97 1019.76 1019.54 1019.21 1018.85 1018.57 1018.38 1018.13 1017.86 1017.60 1017.41 1017.17 1016.28 1015.57 1015.41 1015.09 1015.00 1014.92 1015.02 1015.03 1014.90 1014.98 1015.18 1015.04 1014.87 1014.57 1014.09 1013.72 1013.10 1012.67 1012.30 1012.07
1023.05 1022.88 1022.57 1022.39 1022.20 1021.86 1021.62 1021.32 1021.05 1020.78 1020.54 1020.30 1020.15 1020.05 1019.94 1019.89 1019.63 1019.40 1019.04 1018.76 1018.42 1018.19 1018.05 1017.84 1017.71 1017.62 1017.00 1015.66 1015.48 1015.44 1015.16 1015.00 1014.96 1014.92 1014.99 1014.87 1014.93 1015.10 1015.13 1014.97 1014.69 1014.54 1014.23 1013.77 1012.92 1012.50 1012.26
1023.14 1023.09 1022.77 1022.50 1022.16 1021.82 1021.61 1021.42 1021.20 1020.84 1020.52 1020.35 1020.11 1019.94 1019.82 1019.73 1019.56 1019.29 1018.88 1018.61 1018.28 1017.91 1017.82 1017.79 1017.90 1017.80 1016.87 1015.64 1015.60 1015.48 1015.43 1015.32 1015.08 1015.03 1014.85 1014.84 1014.88 1015.34 1015.33 1015.55 1015.56 1015.28 1014.98 1014.30 1013.37 1012.81 1012.69
1023.30 1023.10 1022.92 1022.54 1022.28 1021.90 1021.64 1021.44 1021.24 1020.88 1020.52 1020.25 1020.09 1019.97 1019.64 1019.44 1019.34 1019.06 1018.60 1018.15 1018.05 1017.88 1017.68 1017.72 1017.92 1018.23 1016.68 1016.39 1015.97 1015.67 1015.35 1015.31 1015.32 1015.28 1015.20 1015.25 1015.68 1015.97 1016.24 1016.23 1016.32 1015.92 1015.37 1014.56 1013.88 1013.24 1013.03
1023.40 1023.24 1023.09 1022.62 1022.27 1022.07 1021.71 1021.51 1021.23 1020.89 1020.57 1020.42 1020.13 1019.85 1019.57 1019.19 1019.11 1019.06 1018.58 1018.17 1018.84 1018.62 1018.30 1018.35 1018.24 1017.96 1017.06 1016.35 1015.91 1015.77 1015.48 1015.49 1015.60 1015.87 1016.15 1016.01 1016.60 1016.59 1016.46 1016.31 1016.12 1015.85 1015.53 1015.01 1014.09 1013.38 1013.25
1023.46 1023.26 1023.09 1022.83 1022.47 1022.21 1021.73 1021.56 1021.29 1020.91 1020.64 1020.32 1020.05 1019.83 1019.61 1019.19 1019.04 1018.90 1019.01 1019.52 1019.96 1020.28 1019.44 1018.20 1017.80 1017.47 1016.83 1016.54 1016.33 1015.89 1015.68 1015.98 1016.14 1016.56 1016.52 1016.71 1016.66 1016.30 1016.09 1016.02 1016.05 1015.76 1015.40 1015.14 1014.41 1013.86 1013.80
1023.52 1023.42 1023.14 1022.90 1022.60 1022.41 1021.92 1021.60 1021.35 1021.02 1020.65 1020.38 1020.05 1019.75 1019.64 1019.33 1019.00 1019.09 1019.64 1020.10 1019.98 1019.94 1020.00 1018.37 1017.48 1017.02 1016.74 1016.70 1016.58 1016.17 1016.11 1016.22 1016.45 1016.70 1016.92 1016.99 1016.54 1016.00 1015.90 1015.81 1015.67 1015.61 1015.50 1015.21 1015.08 1014.55 1014.38
1023.56 1023.51 1023.31 1023.02 1022.68 1022.48 1022.09 1021.66 1021.39 1021.07 1020.73 1020.50 1020.12 1019.88 1019.55 1019.35 1019.50 1019.74 1019.94 1019.97 1019.96 1019.91 1020.14 1018.75 1017.42 1016.70 1016.49 1016.54 1016.71 1016.20 1016.13 1016.58 1016.63 1016.95 1016.87 1016.85 1016.46 1016.14 1015.89 1015.82 1015.83 1015.64 1015.35 1015.48 1015.50 1015.69 1015.57
1023.57 1023.49 1023.43 1023.14 1022.77 1022.46 1022.17 1021.76 1021.40 1021.07 1020.74 1020.53 1020.23 1019.95 1019.73 1019.42 1019.77 1020.02 1020.16 1019.93 1019.84 1020.08 1020.39 1018.74 1017.39 1016.39 1016.46 1016.93 1016.93 1016.43 1016.39 1016.39 1016.91 1017.11 1017.47 1017.13 1016.66 1016.47 1016.15 1015.96 1015.95 1015.76 1015.66 1015.96 1016.02 1016.38 1016.32
1023.50 1023.55 1023.38 1023.21 1022.87 1022.50 1022.22 1021.88 1021.41 1021.21 1020.73 1020.53 1020.28 1020.03 1019.78 1019.93 1020.17 1020.20 1020.06 1019.86 1020.16 1020.70 1020.37 1018.91 1017.75 1017.29 1017.13 1017.01 1016.96 1016.68 1016.71 1016.75 1017.05 1017.40 1017.40 1017.21 1016.70 1016.62 1016.33 1016.01 1015.91 1015.96 1016.21 1016.68 1017.24 1017.65 1017.65
1023.44 1023.48 1023.38 1023.17 1022.95 1022.51 1022.25 1021.95 1021.55 1021.29 1020.90 1020.60 1020.48 1020.24 1020.05 1020.08 1020.46 1020.20 1020.18 1020.43 1020.99 1020.83 1020.60 1019.66 1018.77 1018.21 1018.07 1017.62 1017.23 1017.10 1017.18 1017.31 1017.76 1018.16 1018.26 1017.73 1017.04 1016.70 1016.59 1016.46 1016.15 1016.44 1017.32 1018.14 1018.60 1018.82 1018.30
1023.36 1023.43 1023.44 1023.24 1023.05 1022.69 1022.30 1021.92 1021.66 1021.36 1021.05 1020.72 1020.48 1020.35 1020.33 1020.23 1020.07 1020.05 1020.38 1020.92 1021.15 1021.21 1020.58 1019.77 1019.25 1018.67 1018.48 1017.81 1017.49 1017.41 1017.49 1017.95 1017.99 1018.39 1019.03 1018.85 1017.70 1016.95 1016.80 1016.86 1016.97 1016.99 1017.54 1018.58 1019.02 1019.25 1018.57
1023.40 1023.39 1023.49 1023.33 1023.06 1022.86 1022.43 1022.06 1021.62 1021.31 1021.03 1020.66 1020.46 1020.66 1020.65 1020.44 1020.24 1020.18 1020.72 1021.59 1021.62 1021.11 1020.50 1020.11 1019.45 1019.23 1018.71 1018.27 1018.18 1017.78 1017.87 1018.08 1018.23 1018.43 1018.89 1018.81 1017.91 1017.08 1016.99 1016.82 1017.10 1017.33 1017.65 1017.85 1018.69 1019.32 1019.00
1023.32 1023.34 1023.50 1023.40 1023.19 1022.91 1022.59 1022.14 1021.80 1021.23 1020.90 1020.55 1020.96 1020.79 1020.73 1020.42 1020.35 1020.62 1021.01 1021.48 1021.08 1020.42 1020.28 1020.27 1020.18 1019.69 1019.49 1018.86 1018.66 1018.33 1017.94 1017.91 1018.11 1018.23 1018.44 1018.60 1018.52 1017.46 1017.14 1017.14 1017.15 1017.22 1017.88 1018.20 1018.76 1019.18 1018.86
1023.29 1023.28 1023.40 1023.39 1023.24 1022.93 1022.67 1022.34 1021.83 1021.33 1020.75 1020.60 1020.94 1021.32 1020.62 1020.46 1020.41 1020.80 1021.37 1021.07 1020.46 1020.02 1020.03 1020.26 1020.15 1019.94 1019.57 1019.14 1018.82 1018.54 1018.25 1017.99 1018.00 1018.14 1018.48 1018.67 1019.05 1018.14 1017.77 1017.42 1017.26 1017.56 1017.57 1018.24 1018.64 1018.73 1018.56
1023.20 1023.23 1023.35 1023.36 1023.21 1023.01 1022.61 1022.45 1022.07 1021.43 1020.93 1020.64 1021.30 1021.57 1020.82 1020.56 1021.12 1021.15 1021.16 1020.37 1019.87 1019.78 1019.78 1019.98 1020.06 1019.91 1019.57 1019.36 1018.91 1018.55 1018.35 1017.97 1018.02 1018.30 1018.52 1018.94 1019.25 1019.05 1017.85 1017.44 1017.30 1017.26 1017.41 1017.53 1018.74 1018.76 1018.54
1023.03 1023.12 1023.20 1023.28 1023.26 1023.00 1022.76 1022.47 1022.21 1021.79 1021.44 1021.65 1021.89 1021.51 1020.95 1020.80 1021.11 1021.00 1020.33 1020.00 1019.82 1019.80 1019.71 1019.65 1019.81 1019.71 1019.44 1019.35 1019.32 1018.48 1018.00 1017.70 1018.01 1018.37 1018.63 1018.84 1019.39 1019.36 1018.06 1017.99 1017.63 1017.63 1017.56 1017.75 1017.95 1018.11 1018.09
1022.80 1023.02 1022.96 1023.14 1023.07 1022.96 1022.84 1022.52 1022.27 1021.96 1021.63 1021.82 1022.18 1021.98 1021.32 1021.20 1021.29 1020.75 1020.26 1019.72 1019.49 1019.32 1019.58 1019.53 1019.46 1019.52 1019.61 1019.43 1019.01 1018.77 1018.21 1017.65 1018.02 1018.39 1018.82 1019.15 1019.40 1019.66 1019.29 1018.33 1017.94 1017.90 1017.62 1017.69 1018.16 1018.46 1017.31
1022.52 1022.80 1022.81 1022.98 1022.89 1022.79 1022.76 1022.56 1022.33 1021.94 1021.62 1021.87 1022.41 1022.10 1021.85 1021.56 1020.96 1020.46 1020.14 1019.81 1019.36 1019.28 1019.42 1019.54 1019.62 1019.49 1019.53 1019.47 1019.11 1018.83 1018.26 1018.07 1018.24 1018.61 1019.07 1019.58 1019.74 1019.39 1018.64 1018.23 1018.07 1017.49 1017.18 1017.34 1017.77 1017.20 1017.12
1022.36 1022.51 1022.68 1022.75 1022.75 1022.69 1022.69 1022.52 1022.39 1022.06 1021.73 1022.02 1022.40 1022.43 1022.16 1021.61 1020.92 1020.64 1020.15 1019.69 1019.31 1018.75 1018.90 1019.22 1019.56 1019.01 1019.30 1019.43 1018.72 1018.53 1018.47 1018.57 1018.55 1018.91 1019.22 1019.81 1019.86 1019.64 1018.68 1017.45 1017.28 1016.91 1016.05 1016.13 1016.45 1016.41 1015.83
1021.98 1022.14 1022.33 1022.52 1022.61 1022.60 1022.54 1022.41 1022.31 1022.14 1021.93 1022.31 1022.68 1022.39 1022.15 1021.63 1021.30 1020.87 1019.77 1018.89 1018.68 1018.73 1017.97 1018.00 1018.49 1018.93 1019.01 1018.39 1018.27 1018.08 1018.18 1018.40 1018.45 1019.00 1019.57 1019.83 1020.04 1020.07 1018.98 1017.70 1016.94 1015.96 1014.42 1014.84 1015.01 1014.88 1014.60
1021.60 1021.84 1022.12 1022.22 1022.29 1022.36 1022.33 1022.26 1022.21 1022.13 1022.26 1022.86 1022.99 1022.98 1022.91 1022.24 1021.62 1020.56 1019.43 1019.09 1018.62 1018.48 1018.36 1017.99 1018.34 1018.59 1017.98 1017.87 1017.96 1018.14 1018.25 1018.26 1018.62 1018.87 1019.34 1019.94 1020.18 1020.18 1019.35 1018.20 1016.72 1014.20 1013.49 1013.70 1014.02 1013.73 1013.64
1021.33 1021.56 1021.67 1021.78 1021.92 1021.94 1022.02 1022.06 1022.12 1022.05 1022.22 1022.54 1022.89 1023.01 1022.94 1022.39 1021.40 1020.51 1019.76 1019.16 1018.54 1018.33 1018.53 1018.09 1017.79 1017.78 1017.83 1018.32 1018.79 1018.79 1018.56 1018.48 1018.57 1018.90 1019.30 1019.83 1020.06 1020.21 1019.82 1018.62 1016.10 1013.57 1013.34 1013.27 1013.61 1013.31 1013.14
1020.99 1021.24 1021.38 1021.61 1021.69 1021.52 1021.60 1021.68 1021.80 1021.68 1022.01 1022.29 1022.56 1022.95 1023.04 1022.67 1021.04 1020.24 1019.47 1018.87 1018.79 1018.35 1018.54 1017.95 1017.86 1017.98 1018.26 1019.07 1019.70 1019.82 1019.60 1018.76 1018.88 1019.25 1019.50 1019.78 1020.07 1020.35 1020.13 1018.92 1016.36 1013.42 1013.02 1013.01 1013.24 1013.11 1012.92
1020.72 1020.98 1021.18 1021.23 1021.27 1021.32 1021.50 1021.55 1021.43 1021.39 1021.55 1021.79 1021.93 1022.45 1022.80 1022.76 1020.95 1020.36 1019.61 1018.76 1018.38 1018.39 1018.40 1018.20 1018.22 1018.50 1018.43 1019.42 1020.00 1020.05 1019.53 1018.58 1018.49 1018.59 1019.14 1019.63 1019.95 1019.90 1019.38 1018.47 1015.83 1013.27 1013.05 1013.24 1013.52 1013.24 1012.50
1020.99 1021.17 1021.30 1021.43 1021.46 1021.43 1021.49 1021.47 1021.38 1021.31 1021.20 1021.35 1021.23 1021.56 1021.89 1021.62 1020.44 1019.89 1019.41 1018.75 1018.12 1018.04 1018.19 1018.42 1018.77 1018.76 1019.18 1019.70 1019.79 1019.23 1018.92 1017.73 1017.45 1016.81 1017.02 1017.38 1018.19 1018.31 1018.06 1017.30 1015.26 1012.91 1013.43 1013.27 1012.22 1012.40 1012.51
1021.71 1021.71 1021.82 1021.79 1021.74 1021.71 1021.73 1021.62 1021.54 1021.35 1021.15 1021.00 1020.84 1020.58 1020.73 1020.74 1018.96 1018.36 1017.96 1017.30 1017.60 1017.64 1017.96 1017.88 1017.76 1017.66 1017.28 1018.27 1018.76 1018.57 1018.18 1017.66 1016.76 1016.39 1015.83 1015.71 1014.62 1014.92 1015.03 1013.18 1011.90 1012.12 1011.62 1011.65 1011.54 1011.77 1012.18
Thickness
5634 5634 5633 5633 5633 5633 5633 5633 5633 5632 5630 5627 5621 5616 5611 5606 5602 5597 5589 5580 5570 5560 5551 5544 5539 5534 5532 5526 5526 5536 5538 5541 5544 5546 5547 5552 5556 5559 5565 5577 5591 5601 5616 5632 5645 5655 5659
5633 5633 5632 5632 5631 5632 5633 5632 5631 5631 5629 5626 5621 5616 5611 5606 5600 5594 5588 5580 5571 5562 5552 5545 5540 5536 5530 5522 5535 5538 5539 5542 5542 5542 5544 5549 5552 5558 5562 5572 5583 5595 5607 5618 5634 5644 5653
5631 5631 5632 5632 5631 5632 5632 5631 5630 5629 5629 5626 5621 5617 5612 5606 5600 5593 5587 5581 5574 5563 5554 5546 5540 5536 5530 5530 5539 5539 5542 5543 5544 5544 5543 5549 5553 5555 5563 5568 5580 5591 5599 5611 5624 5637 5642
5631 5630 5631 5632 5632 5632 5632 5631 5631 5630 5629 5627 5623 5618 5613 5607 5601 5595 5590 5583 5577 5568 5557 5549 5542 5537 5531 5544 5542 5541 5543 5544 5546 5547 5547 5550 5554 5556 5560 5567 5574 5579 5585 5588 5615 5628 5638
5630 5629 5630 5631 5632 5632 5632 5631 5630 5630 5629 5627 5624 5620 5615 5608 5602 5597 5592 5586 5580 5573 5563 5553 5545 5537 5534 5546 5541 5542 5543 5542 5545 5547 5549 5552 5553 5550 5556 5555 5555 5560 5566 5582 5605 5618 5628
5628 5629 5629 5631 5632 5632 5632 5631 5630 5630 5629 5628 5624 5619 5616 5611 5605 5600 5596 5591 5584 5576 5568 5560 5548 5536 5542 5538 5541 5543 5545 5545 5543 5543 5544 5545 5538 5538 5537 5541 5541 5554 5565 5579 5591 5608 5618
5626 5627 5627 5630 5632 5632 5632 5630 5630 5629 5628 5625 5623 5620 5617 5614 5608 5601 5599 5593 5578 5573 5567 5559 5549 5541 5542 5547 5548 5544 5546 5543 5542 5538 5532 5537 5523 5528 5539 5546 5552 5556 5562 5569 5587 5605 5610
5624 5625 5626 5627 5629 5630 5631 5630 5629 5628 5627 5626 5624 5620 5617 5615 5610 5604 5597 5584 5574 5564 5557 5565 5557 5551 5550 5549 5542 5545 5547 5539 5537 5530 5534 5528 5528 5540 5543 5546 5547 5553 5561 5565 5580 5594 5601
5621 5622 5624 5625 5626 5627 5629 5629 5628 5627 5627 5625 5624 5621 5616 5614 5611 5604 5593 5583 5576 5570 5557 5565 5565 5559 5553 5550 5543 5544 5545 5541 5537 5532 5533 5528 5535 5542 5544 5547 5550 5552 5554 5564 5570 5583 5591
5618 5618 5620 5622 5624 5624 5626 5627 5627 5626 5626 5623 5623 5620 5618 5614 5609 5599 5592 5585 5579 5572 5545 5562 5566 5565 5562 5555 5544 5552 5550 5542 5538 5535 5534 5535 5540 5540 5543 5543 5543 5546 5559 5560 5564 5565 5564
5614 5614 5615 5618 5621 5622 5623 5625 5625 5625 5625 5623 5621 5619 5616 5614 5607 5598 5593 5588 5582 5571 5518 5569 5567 5577 5567 5556 5550 5550 5551 5547 5537 5538 5535 5533 5537 5536 5539 5542 5542 5544 5552 5554 5564 5558 5564
5610 5610 5612 5614 5617 5619 5620 5621 5623 5622 5624 5622 5621 5618 5616 5610 5605 5599 5595 5591 5582 5547 5524 5561 5571 5564 5561 5560 5556 5554 5549 5549 5543 5537 5536 5536 5542 5539 5540 5543 5545 5546 5549 5544 5537 5538 5529
5606 5606 5607 5610 5612 5615 5617 5618 5620 5619 5620 5620 5617 5616 5614 5609 5603 5600 5595 5586 5559 5543 5567 5566 5563 5561 5555 5556 5558 5555 5547 5540 5535 5520 5518 5529 5540 5541 5540 5538 5545 5541 5527 5504 5520 5509 5537
5602 5602 5602 5604 5607 5610 5613 5614 5616 5616 5617 5617 5616 5613 5611 5608 5606 5602 5593 5581 5565 5574 5568 5570 5566 5561 5558 5562 5561 5557 5549 5536 5539 5534 5510 5508 5514 5540 5539 5537 5535 5540 5533 5506 5530 5521 5535
5596 5597 5596 5598 5602 5604 5607 5610 5612 5613 5614 5615 5614 5610 5606 5606 5602 5600 5587 5555 5570 5571 5573 5567 5567 5563 5559 5561 5556 5555 5550 5543 5542 5539 5530 5524 5530 5542 5539 5540 5537 5538 5532 5538 5526 5521 5526
5591 5592 5591 5593 5596 5599 5602 5605 5607 5610 5611 5612 5607 5606 5605 5603 5601 5593 5581 5581 5576 5579 5576 5568 5562 5564 5555 5554 5550 5550 5551 5552 5546 5543 5538 5535 5523 5541 5542 5538 5537 5537 5532 5529 5506 5534 5535
5584 5586 5586 5587 5590 5593 5596 5598 5602 5605 5608 5607 5602 5601 5603 5601 5598 5585 5577 5576 5582 5583 5578 5568 5564 5559 5558 5556 5553 5550 5552 5553 5547 5545 5538 5536 5526 5534 5538 5535 5536 5529 5531 5528 5523 5522 5531
5578 5579 5580 5581 5583 5587 5590 5591 5594 5598 5602 5603 5595 5597 5598 5598 5593 5567 5581 5582 5588 5583 5578 5572 5567 5562 5560 5558 5556 5555 5550 5551 5547 5543 5540 5534 5519 5513 5535 5539 5538 5537 5535 5530 5515 5533 5513
5571 5572 5574 5574 5576 5579 5582 5584 5586 5589 5592 5588 5588 5587 5592 5590 5589 5585 5587 5588 5583 5579 5575 5573 5568 5564 5564 5559 5553 5555 5558 5557 5548 5543 5541 5537 5522 5501 5535 5534 5536 5533 5532 5531 5519 5511 5522
5564 5564 5567 5567 5569 5571 5573 5576 5578 5581 5583 5581 5577 5582 5585 5579 5572 5587 5588 5588 5585 5578 5574 5571 5569 5565 5561 5557 5554 5554 5557 5560 5549 5544 5538 5532 5520 5524 5516 5534 5533 5532 5533 5530 5524 5493 5528
5555 5555 5558 5559 5561 5563 5564 5567 5569 5572 5574 5572 5566 5576 5574 5577 5582 5581 5582 5581 5581 5578 5570 5564 5564 5557 5555 5555 5557 5550 5556 5555 5548 5543 5534 5526 5523 5510 5518 5516 5515 5524 5528 5522 5508 5528 5532
5544 5546 5547 5550 5551 5553 5555 5557 5559 5561 5564 5561 5562 5563 5557 5560 5570 5572 5572 5574 5573 5576 5571 5567 5557 5565 5544 5545 5554 5555 5552 5547 5547 5537 5534 5516 5518 5522 5527 5535 5521 5523 5527 5521 5518 5528 5525
5536 5537 5539 5541 5542 5544 5545 5547 5548 5550 5552 5547 5544 5546 5549 5555 5556 5559 5566 5573 5572 5568 5577 5573 5561 5556 5547 5546 5546 5549 5547 5544 5544 5539 5521 5516 5507 5512 5522 5531 5529 5538 5541 5538 5538 5532 5545
5527 5529 5531 5532 5533 5533 5535 5536 5537 5538 5538 5534 5532 5530 5531 5541 5540 5551 5567 5562 5565 5561 5563 5569 5555 5548 5554 5552 5549 5543 5536 5529 5523 5521 5518 5509 5505 5502 5504 5514 5522 5556 5559 5554 5546 5550 5541
5518 5519 5522 5523 5524 5525 5525 5525 5526 5527 5526 5525 5522 5521 5517 5521 5530 5542 5547 5547 5552 5554 5550 5555 5556 5548 5541 5540 5528 5525 5530 5541 5531 5520 5510 5506 5503 5497 5503 5502 5533 5557 5555 5551 5550 5554 5551
5510 5510 5511 5511 5513 5516 5517 5516 5516 5517 5515 5514 5512 5509 5504 5504 5523 5532 5541 5544 5536 5535 5534 5542 5539 5531 5528 5514 5512 5511 5515 5527 5526 5513 5500 5493 5489 5493 5480 5497 5526 5558 5552 5546 5546 5537 5548
5501 5501 5501 5502 5503 5505 5505 5505 5506 5506 5505 5503 5503 5497 5490 5483 5504 5512 5517 5525 5530 5526 5519 5523 5524 5516 5519 5500 5496 5489 5493 5511 5514 5516 5494 5490 5478 5481 5478 5475 5508 5540 5541 5534 5536 5541 5544
5489 5490 5490 5491 5491 5493 5491 5491 5492 5493 5493 5493 5492 5488 5482 5482 5492 5499 5503 5506 5515 5515 5513 5507 5503 5500 5492 5490 5485 5489 5475 5496 5504 5514 5502 5505 5485 5472 5466 5472 5497 5531 5527 5530 5539 5531 5537
5474 5474 5475 5475 5475 5476 5476 5477 5477 5478 5478 5478 5482 5483 5477 5474 5493 5499 5501 5511 5505 5502 5496 5492 5494 5493 5500 5482 5474 5473 5480 5469 5490 5495 5501 5503 5526 5521 5506 5520 5541 5521 5534 5529 5526 5531 5525